Time,TemperatureF,DewpointF,PressureIn,WindDirection,WindDirectionDegrees,WindSpeedMPH,WindSpeedGustMPH,Humidity,HourlyPrecipIn,Conditions,Clouds,dailyrainin,SoftwareType,DateUTC
2013-10-11 00:01:00,75.6,69.0,29.79,North,0,0.0,0.0,80,0.00,,SCT070,0.00,VWS V14.01,2013-10-11 04:01:00,
2013-10-11 00:06:00,75.7,69.1,29.79,North,0,0.0,0.0,80,0.00,,SCT070,0.00,VWS V14.01,2013-10-11 04:06:00,
2013-10-11 00:11:00,75.9,69.3,29.79,North,0,0.0,0.0,80,0.00,,SCT070,0.00,VWS V14.01,2013-10-11 04:11:00,
2013-10-11 00:16:00,75.9,69.3,29.79,North,0,0.0,0.0,80,0.00,,SCT070,0.00,VWS V14.01,2013-10-11 04:16:00,
2013-10-11 00:21:00,75.6,69.0,29.79,North,0,0.0,0.0,80,0.00,,SCT070,0.00,VWS V14.01,2013-10-11 04:21:00,
2013-10-11 00:26:00,75.4,68.8,29.79,North,0,0.0,0.0,80,0.00,,SCT070,0.00,VWS V14.01,2013-10-11 04:26:00,
2013-10-11 00:31:00,75.4,68.8,29.79,North,0,0.0,0.0,80,0.00,,SCT070,0.00,VWS V14.01,2013-10-11 04:31:00,
2013-10-11 00:36:00,75.2,69.0,29.79,North,0,0.0,0.0,81,0.00,,SCT070,0.00,VWS V14.01,2013-10-11 04:36:00,
2013-10-11 00:41:00,75.4,69.2,29.79,North,0,0.0,0.0,81,0.00,,SCT070,0.00,VWS V14.01,2013-10-11 04:41:00,
2013-10-11 00:46:00,75.4,69.2,29.79,North,0,0.0,0.0,81,0.00,,SCT070,0.00,VWS V14.01,2013-10-11 04:46:00,
2013-10-11 00:51:00,75.2,69.0,29.79,North,0,0.0,0.0,81,0.00,,SCT070,0.00,VWS V14.01,2013-10-11 04:51:00,
2013-10-11 00:56:00,75.2,69.0,29.79,North,0,0.0,0.0,81,0.00,,SCT070,0.00,VWS V14.01,2013-10-11 04:56:00,
2013-10-11 01:01:00,75.0,69.2,29.79,North,0,0.0,0.0,82,0.00,,SCT070,0.00,VWS V14.01,2013-10-11 05:01:00,
2013-10-11 01:06:00,75.0,69.2,29.79,North,0,0.0,0.0,82,0.00,,SCT070,0.00,VWS V14.01,2013-10-11 05:06:00,
2013-10-11 01:11:00,75.0,69.2,29.76,North,0,0.0,0.0,82,0.00,,SCT070,0.00,VWS V14.01,2013-10-11 05:11:00,
2013-10-11 01:16:00,75.0,69.2,29.76,North,0,0.0,0.0,82,0.00,,SCT070,0.00,VWS V14.01,2013-10-11 05:16:00,
2013-10-11 01:21:00,75.0,69.2,29.76,North,0,0.0,0.0,82,0.00,,SCT070,0.00,VWS V14.01,2013-10-11 05:21:00,
2013-10-11 01:26:00,75.0,69.2,29.76,North,0,0.0,0.0,82,0.00,,SCT070,0.00,VWS V14.01,2013-10-11 05:26:00,
2013-10-11 01:31:00,75.0,69.2,29.76,North,0,0.0,0.0,82,0.00,,SCT070,0.00,VWS V14.01,2013-10-11 05:31:00,
2013-10-11 01:36:00,75.0,69.2,29.76,North,0,0.0,0.0,82,0.00,,SCT070,0.00,VWS V14.01,2013-10-11 05:36:00,
2013-10-11 01:41:00,75.0,69.2,29.76,North,0,0.0,0.0,82,0.00,,SCT070,0.00,VWS V14.01,2013-10-11 05:41:00,
2013-10-11 01:46:00,75.2,69.3,29.76,North,0,0.0,0.0,82,0.00,,SCT070,0.00,VWS V14.01,2013-10-11 05:46:00,
2013-10-11 01:51:00,75.2,69.3,29.76,North,0,0.0,0.0,82,0.00,,SCT070,0.00,VWS V14.01,2013-10-11 05:51:00,
2013-10-11 01:56:00,75.0,69.2,29.73,North,0,0.0,0.0,82,0.00,,SCT070,0.00,VWS V14.01,2013-10-11 05:56:00,
2013-10-11 02:01:00,74.8,69.3,29.73,North,0,0.0,0.0,83,0.00,,SCT070,0.00,VWS V14.01,2013-10-11 06:01:00,
2013-10-11 02:06:00,74.7,69.2,29.73,North,0,0.0,0.0,83,0.00,,SCT070,0.00,VWS V14.01,2013-10-11 06:06:00,
2013-10-11 02:11:00,74.7,69.2,29.73,North,0,0.0,0.0,83,0.00,,SCT070,0.00,VWS V14.01,2013-10-11 06:11:00,
2013-10-11 02:16:00,74.7,69.2,29.73,North,0,0.0,0.0,83,0.00,,SCT070,0.00,VWS V14.01,2013-10-11 06:16:00,
2013-10-11 02:21:00,74.7,69.2,29.73,North,0,0.0,0.0,83,0.00,,SCT070,0.00,VWS V14.01,2013-10-11 06:21:00,
2013-10-11 02:26:00,74.7,69.2,29.73,North,0,0.0,0.0,83,0.00,,SCT070,0.00,VWS V14.01,2013-10-11 06:26:00,
2013-10-11 02:31:00,74.5,69.0,29.73,North,0,0.0,0.0,83,0.00,,SCT070,0.00,VWS V14.01,2013-10-11 06:31:00,
2013-10-11 02:36:00,74.5,69.0,29.73,North,0,0.0,0.0,83,0.00,,SCT070,0.00,VWS V14.01,2013-10-11 06:36:00,
2013-10-11 02:41:00,74.7,69.5,29.76,North,0,0.0,0.0,84,0.00,,SCT070,0.00,VWS V14.01,2013-10-11 06:41:00,
2013-10-11 02:46:00,74.5,69.3,29.76,North,0,0.0,0.0,84,0.00,,SCT070,0.00,VWS V14.01,2013-10-11 06:46:00,
2013-10-11 02:51:00,74.7,69.5,29.76,North,0,0.0,0.0,84,0.00,,SCT070,0.00,VWS V14.01,2013-10-11 06:51:00,
2013-10-11 02:56:00,74.7,69.5,29.73,North,0,0.0,0.0,84,0.00,,SCT070,0.00,VWS V14.01,2013-10-11 06:56:00,
2013-10-11 03:01:00,74.8,70.0,29.73,North,0,0.0,0.0,85,0.00,,SCT070,0.00,VWS V14.01,2013-10-11 07:01:00,
2013-10-11 03:06:00,74.8,70.0,29.73,North,0,0.0,0.0,85,0.00,,SCT070,0.00,VWS V14.01,2013-10-11 07:06:00,
2013-10-11 03:11:00,75.0,70.2,29.73,North,0,0.0,0.0,85,0.00,,SCT070,0.00,VWS V14.01,2013-10-11 07:11:00,
2013-10-11 03:16:00,75.0,70.2,29.73,North,0,0.0,0.0,85,0.00,,SCT070,0.00,VWS V14.01,2013-10-11 07:16:00,
2013-10-11 03:21:00,74.8,70.0,29.73,North,0,0.0,0.0,85,0.00,,SCT070,0.00,VWS V14.01,2013-10-11 07:21:00,
2013-10-11 03:26:00,74.8,70.0,29.73,North,0,0.0,0.0,85,0.00,,SCT070,0.00,VWS V14.01,2013-10-11 07:26:00,
2013-10-11 03:31:00,74.8,70.0,29.73,North,0,0.0,0.0,85,0.00,,SCT070,0.00,VWS V14.01,2013-10-11 07:31:00,
2013-10-11 03:36:00,74.7,69.9,29.73,North,0,0.0,0.0,85,0.00,,SCT070,0.00,VWS V14.01,2013-10-11 07:36:00,
2013-10-11 03:41:00,74.7,70.2,29.73,North,0,0.0,0.0,86,0.00,,SCT070,0.00,VWS V14.01,2013-10-11 07:41:00,
2013-10-11 03:46:00,74.7,70.2,29.73,North,0,0.0,0.0,86,0.00,,SCT070,0.00,VWS V14.01,2013-10-11 07:46:00,
2013-10-11 03:51:00,74.7,70.2,29.73,North,0,0.0,0.0,86,0.00,,SCT070,0.00,VWS V14.01,2013-10-11 07:51:00,
2013-10-11 03:56:00,74.7,70.2,29.73,North,0,0.0,0.0,86,0.00,,SCT070,0.00,VWS V14.01,2013-10-11 07:56:00,
2013-10-11 04:01:00,74.7,70.2,29.73,North,0,0.0,0.0,86,0.00,,SCT070,0.00,VWS V14.01,2013-10-11 08:01:00,
2013-10-11 04:06:00,74.7,70.2,29.73,North,0,0.0,0.0,86,0.00,,SCT070,0.00,VWS V14.01,2013-10-11 08:06:00,
2013-10-11 04:11:00,74.8,70.4,29.73,North,0,0.0,0.0,86,0.00,,SCT070,0.00,VWS V14.01,2013-10-11 08:11:00,
2013-10-11 04:16:00,74.8,70.4,29.73,North,0,0.0,0.0,86,0.00,,SCT070,0.00,VWS V14.01,2013-10-11 08:16:00,
2013-10-11 04:21:00,74.8,70.4,29.73,North,0,0.0,0.0,86,0.00,,SCT070,0.00,VWS V14.01,2013-10-11 08:21:00,
2013-10-11 04:26:00,74.8,70.4,29.70,North,0,0.0,0.0,86,0.00,,SCT070,0.00,VWS V14.01,2013-10-11 08:26:00,
2013-10-11 04:31:00,74.8,70.4,29.70,North,0,0.0,0.0,86,0.00,,SCT070,0.00,VWS V14.01,2013-10-11 08:31:00,
2013-10-11 04:36:00,74.7,70.5,29.70,North,0,0.0,0.0,87,0.00,,SCT070,0.00,VWS V14.01,2013-10-11 08:36:00,
2013-10-11 04:41:00,74.7,70.5,29.70,North,0,0.0,0.0,87,0.00,,SCT070,0.00,VWS V14.01,2013-10-11 08:41:00,
2013-10-11 04:46:00,74.7,70.5,29.70,North,0,0.0,0.0,87,0.00,,SCT070,0.00,VWS V14.01,2013-10-11 08:46:00,
2013-10-11 04:51:00,74.5,70.4,29.70,North,0,0.0,0.0,87,0.00,,SCT070,0.00,VWS V14.01,2013-10-11 08:51:00,
2013-10-11 04:56:00,74.5,70.4,29.70,North,0,0.0,0.0,87,0.00,,SCT070,0.00,VWS V14.01,2013-10-11 08:56:00,
2013-10-11 05:01:00,74.5,70.4,29.70,North,0,0.0,0.0,87,0.00,,SCT070,0.00,VWS V14.01,2013-10-11 09:01:00,
2013-10-11 05:06:00,74.5,70.4,29.70,North,0,0.0,0.0,87,0.00,,SCT070,0.00,VWS V14.01,2013-10-11 09:06:00,
2013-10-11 05:11:00,74.7,70.9,29.70,North,0,0.0,0.0,88,0.00,,SCT070,0.00,VWS V14.01,2013-10-11 09:11:00,
2013-10-11 05:16:00,74.7,70.9,29.70,North,0,0.0,0.0,88,0.00,,SCT070,0.00,VWS V14.01,2013-10-11 09:16:00,
2013-10-11 05:21:00,74.7,70.9,29.70,North,0,0.0,0.0,88,0.00,,SCT070,0.00,VWS V14.01,2013-10-11 09:21:00,
2013-10-11 05:26:00,74.5,70.7,29.70,North,0,0.0,0.0,88,0.00,,SCT070,0.00,VWS V14.01,2013-10-11 09:26:00,
2013-10-11 05:31:00,74.5,70.7,29.70,North,0,0.0,0.0,88,0.00,,SCT070,0.00,VWS V14.01,2013-10-11 09:31:00,
2013-10-11 05:36:00,74.7,70.9,29.70,North,0,0.0,0.0,88,0.00,,SCT070,0.00,VWS V14.01,2013-10-11 09:36:00,
2013-10-11 05:41:00,74.5,70.7,29.73,North,0,0.0,0.0,88,0.00,,SCT070,0.00,VWS V14.01,2013-10-11 09:41:00,
2013-10-11 05:46:00,74.3,70.5,29.73,North,0,0.0,0.0,88,0.00,,SCT070,0.00,VWS V14.01,2013-10-11 09:46:00,
2013-10-11 05:51:00,74.3,70.5,29.73,North,0,0.0,0.0,88,0.00,,SCT070,0.00,VWS V14.01,2013-10-11 09:51:00,
2013-10-11 05:56:00,74.3,70.5,29.73,North,0,0.0,0.0,88,0.00,,SCT070,0.00,VWS V14.01,2013-10-11 09:56:00,
2013-10-11 06:01:00,74.3,70.5,29.73,North,0,0.0,0.0,88,0.00,,SCT070,0.00,VWS V14.01,2013-10-11 10:01:00,
2013-10-11 06:06:00,74.1,70.3,29.73,North,0,0.0,0.0,88,0.00,,SCT070,0.00,VWS V14.01,2013-10-11 10:06:00,
2013-10-11 06:11:00,74.1,70.3,29.73,North,0,0.0,0.0,88,0.00,,SCT070,0.00,VWS V14.01,2013-10-11 10:11:00,
2013-10-11 06:16:00,74.1,70.3,29.73,North,0,0.0,0.0,88,0.00,,SCT070,0.00,VWS V14.01,2013-10-11 10:16:00,
2013-10-11 06:21:00,74.1,70.3,29.73,North,0,0.0,0.0,88,0.00,,SCT070,0.00,VWS V14.01,2013-10-11 10:21:00,
2013-10-11 06:26:00,74.1,70.3,29.73,North,0,0.0,0.0,88,0.00,,SCT070,0.00,VWS V14.01,2013-10-11 10:26:00,
2013-10-11 06:31:00,74.3,70.5,29.73,North,0,0.0,0.0,88,0.00,,SCT070,0.00,VWS V14.01,2013-10-11 10:31:00,
2013-10-11 06:36:00,74.3,70.5,29.73,North,0,0.0,0.0,88,0.00,,SCT070,0.00,VWS V14.01,2013-10-11 10:36:00,
2013-10-11 06:41:00,74.5,70.7,29.73,North,0,0.0,0.0,88,0.00,,SCT070,0.00,VWS V14.01,2013-10-11 10:41:00,
2013-10-11 06:46:00,74.5,70.7,29.73,North,0,0.0,0.0,88,0.00,,SCT070,0.00,VWS V14.01,2013-10-11 10:46:00,
2013-10-11 06:51:00,74.5,70.7,29.73,North,0,0.0,0.0,88,0.00,,SCT070,0.00,VWS V14.01,2013-10-11 10:51:00,
2013-10-11 06:56:00,74.5,70.7,29.73,North,0,0.0,0.0,88,0.00,,SCT070,0.00,VWS V14.01,2013-10-11 10:56:00,
2013-10-11 07:01:00,74.5,70.7,29.73,North,0,0.0,0.0,88,0.00,,SCT070,0.00,VWS V14.01,2013-10-11 11:01:00,
2013-10-11 07:06:00,74.5,70.7,29.73,North,0,0.0,0.0,88,0.00,,SCT070,0.00,VWS V14.01,2013-10-11 11:06:00,
2013-10-11 07:11:00,74.7,70.9,29.73,North,0,0.0,0.0,88,0.00,,SCT070,0.00,VWS V14.01,2013-10-11 11:11:00,
2013-10-11 07:16:00,74.7,70.9,29.73,North,0,0.0,0.0,88,0.00,,SCT070,0.00,VWS V14.01,2013-10-11 11:16:00,
2013-10-11 07:21:00,74.7,70.9,29.73,North,0,0.0,0.0,88,0.00,,SCT070,0.00,VWS V14.01,2013-10-11 11:21:00,
2013-10-11 07:26:00,74.8,71.4,29.76,North,0,0.0,0.0,89,0.00,,SCT070,0.00,VWS V14.01,2013-10-11 11:26:00,
2013-10-11 07:31:00,75.2,71.4,29.76,North,0,0.0,0.0,88,0.00,,SCT070,0.00,VWS V14.01,2013-10-11 11:31:00,
2013-10-11 07:36:00,75.4,71.6,29.76,North,0,0.0,0.0,88,0.00,,SCT070,0.00,VWS V14.01,2013-10-11 11:36:00,
2013-10-11 07:41:00,75.6,72.1,29.76,North,0,0.0,0.0,89,0.00,,SCT070,0.00,VWS V14.01,2013-10-11 11:41:00,
2013-10-11 07:46:00,75.7,71.9,29.76,North,0,0.0,0.0,88,0.00,,SCT070,0.00,VWS V14.01,2013-10-11 11:46:00,
2013-10-11 07:51:00,75.7,71.9,29.76,North,0,0.0,0.0,88,0.00,,SCT070,0.00,VWS V14.01,2013-10-11 11:51:00,
2013-10-11 07:56:00,75.7,71.9,29.76,North,0,0.0,0.0,88,0.00,,SCT070,0.00,VWS V14.01,2013-10-11 11:56:00,
2013-10-11 08:01:00,75.7,71.9,29.76,North,0,0.0,0.0,88,0.00,,SCT070,0.00,VWS V14.01,2013-10-11 12:01:00,
2013-10-11 08:06:00,75.7,71.9,29.76,North,0,0.0,0.0,88,0.00,,SCT070,0.00,VWS V14.01,2013-10-11 12:06:00,
2013-10-11 08:11:00,75.9,72.1,29.76,North,0,0.0,0.0,88,0.00,,SCT070,0.00,VWS V14.01,2013-10-11 12:11:00,
2013-10-11 08:16:00,75.9,72.1,29.76,North,0,0.0,0.0,88,0.00,,SCT070,0.00,VWS V14.01,2013-10-11 12:16:00,
2013-10-11 08:21:00,76.1,72.6,29.76,North,0,0.0,0.0,89,0.00,,SCT070,0.00,VWS V14.01,2013-10-11 12:21:00,
2013-10-11 08:26:00,76.5,73.0,29.76,North,0,0.0,0.0,89,0.00,,SCT070,0.00,VWS V14.01,2013-10-11 12:26:00,
2013-10-11 08:31:00,76.8,73.3,29.76,North,0,0.0,0.0,89,0.00,,SCT070,0.00,VWS V14.01,2013-10-11 12:31:00,
2013-10-11 08:36:00,77.5,74.1,29.76,North,0,0.0,0.0,89,0.00,,SCT070,0.00,VWS V14.01,2013-10-11 12:36:00,
2013-10-11 08:41:00,78.1,74.6,29.76,North,0,0.0,0.0,89,0.00,,SCT070,0.00,VWS V14.01,2013-10-11 12:41:00,
2013-10-11 08:46:00,78.6,74.8,29.76,North,0,0.0,0.0,88,0.00,,SCT070,0.00,VWS V14.01,2013-10-11 12:46:00,
2013-10-11 08:51:00,79.0,75.1,29.76,North,0,0.0,0.0,88,0.00,,SCT070,0.00,VWS V14.01,2013-10-11 12:51:00,
2013-10-11 08:56:00,80.1,75.5,29.76,North,0,0.0,0.0,86,0.00,,SCT070,0.00,VWS V14.01,2013-10-11 12:56:00,
2013-10-11 09:01:00,80.8,75.8,29.76,North,0,0.0,0.0,85,0.00,,SCT070,0.00,VWS V14.01,2013-10-11 13:01:00,
2013-10-11 09:07:00,81.1,75.8,29.76,North,0,0.0,0.0,84,0.00,,SCT070,0.00,VWS V14.01,2013-10-11 13:07:00,
2013-10-11 09:12:00,81.7,75.3,29.76,North,0,0.0,0.0,81,0.00,,SCT070,0.00,VWS V14.01,2013-10-11 13:12:00,
2013-10-11 09:17:00,82.2,74.7,29.76,North,0,0.0,0.0,78,0.00,,SCT070,0.00,VWS V14.01,2013-10-11 13:17:00,
2013-10-11 09:22:00,82.6,72.7,29.76,North,0,0.0,0.0,72,0.00,,SCT070,0.00,VWS V14.01,2013-10-11 13:22:00,
2013-10-11 09:27:00,83.1,70.6,29.76,North,0,0.0,0.0,66,0.00,,SCT070,0.00,VWS V14.01,2013-10-11 13:27:00,
2013-10-11 09:32:00,83.7,70.2,29.76,North,0,0.0,0.0,64,0.00,,SCT070,0.00,VWS V14.01,2013-10-11 13:32:00,
2013-10-11 09:37:00,84.0,67.7,29.76,North,0,0.0,0.0,58,0.00,,SCT070,0.00,VWS V14.01,2013-10-11 13:37:00,
2013-10-11 09:42:00,84.4,68.0,29.76,North,0,0.0,0.0,58,0.00,,SCT070,0.00,VWS V14.01,2013-10-11 13:42:00,
2013-10-11 09:47:00,84.2,65.8,29.76,North,0,0.0,0.0,54,0.00,,SCT070,0.00,VWS V14.01,2013-10-11 13:47:00,
2013-10-11 09:52:00,84.0,66.7,29.76,North,0,0.0,0.0,56,0.00,,SCT070,0.00,VWS V14.01,2013-10-11 13:52:00,
2013-10-11 09:57:00,84.2,67.8,29.73,North,0,0.0,0.0,58,0.00,,SCT070,0.00,VWS V14.01,2013-10-11 13:57:00,
2013-10-11 10:02:00,84.4,68.0,29.73,North,0,0.0,0.0,58,0.00,,SCT070,0.00,VWS V14.01,2013-10-11 14:02:00,
2013-10-11 10:07:00,84.4,68.0,29.73,North,0,0.0,0.0,58,0.00,,SCT070,0.00,VWS V14.01,2013-10-11 14:07:00,
2013-10-11 10:12:00,83.8,67.5,29.73,North,0,0.0,0.0,58,0.00,,SCT070,0.00,VWS V14.01,2013-10-11 14:12:00,
2013-10-11 10:17:00,83.7,67.3,29.73,North,0,0.0,0.0,58,0.00,,SCT070,0.00,VWS V14.01,2013-10-11 14:17:00,
2013-10-11 10:22:00,83.5,70.0,29.73,North,0,0.0,0.0,64,0.00,,SCT070,0.00,VWS V14.01,2013-10-11 14:22:00,
2013-10-11 10:27:00,83.1,69.2,29.73,North,0,0.0,0.0,63,0.00,,SCT070,0.00,VWS V14.01,2013-10-11 14:27:00,
2013-10-11 10:32:00,83.7,71.1,29.73,North,0,0.0,0.0,66,0.00,,SCT070,0.00,VWS V14.01,2013-10-11 14:32:00,
2013-10-11 10:37:00,84.2,71.2,29.73,North,0,0.0,0.0,65,0.00,,SCT070,0.00,VWS V14.01,2013-10-11 14:37:00,
2013-10-11 10:42:00,84.0,69.6,29.70,North,0,0.0,0.0,62,0.00,,SCT070,0.00,VWS V14.01,2013-10-11 14:42:00,
2013-10-11 10:47:00,83.8,69.4,29.70,North,0,0.0,0.0,62,0.00,,SCT070,0.00,VWS V14.01,2013-10-11 14:47:00,
2013-10-11 10:52:00,84.0,69.1,29.70,North,0,0.0,0.0,61,0.00,,SCT070,0.00,VWS V14.01,2013-10-11 14:52:00,
2013-10-11 10:57:00,84.4,68.0,29.67,North,0,0.0,0.0,58,0.00,,SCT070,0.00,VWS V14.01,2013-10-11 14:57:00,
2013-10-11 11:02:00,84.4,65.4,29.67,North,0,0.0,0.0,53,0.00,,SCT070,0.00,VWS V14.01,2013-10-11 15:02:00,
2013-10-11 11:07:00,85.1,65.0,29.67,North,0,0.0,0.0,51,0.00,,SCT070,0.00,VWS V14.01,2013-10-11 15:07:00,
2013-10-11 11:12:00,84.9,64.2,29.65,North,0,0.0,0.0,50,0.00,,SCT070,0.00,VWS V14.01,2013-10-11 15:12:00,
2013-10-11 11:17:00,84.7,64.1,29.65,North,0,0.0,0.0,50,0.00,,SCT070,0.00,VWS V14.01,2013-10-11 15:17:00,
2013-10-11 11:22:00,84.6,64.5,29.65,North,0,0.0,0.0,51,0.00,,SCT070,0.00,VWS V14.01,2013-10-11 15:22:00,
2013-10-11 11:27:00,84.4,64.3,29.65,North,0,0.0,0.0,51,0.00,,SCT070,0.00,VWS V14.01,2013-10-11 15:27:00,
2013-10-11 11:32:00,84.0,65.6,29.65,North,0,0.0,0.0,54,0.00,,SCT070,0.00,VWS V14.01,2013-10-11 15:32:00,
2013-10-11 11:37:00,83.8,66.0,29.65,North,0,0.0,0.0,55,0.00,,SCT070,0.00,VWS V14.01,2013-10-11 15:37:00,
2013-10-11 11:42:00,83.7,66.3,29.65,North,0,0.0,0.0,56,0.00,,SCT070,0.00,VWS V14.01,2013-10-11 15:42:00,
2013-10-11 11:47:00,83.7,67.3,29.65,North,0,0.0,0.0,58,0.00,,SCT070,0.00,VWS V14.01,2013-10-11 15:47:00,
2013-10-11 11:52:00,83.8,68.0,29.65,North,0,0.0,0.0,59,0.00,,SCT070,0.00,VWS V14.01,2013-10-11 15:52:00,
2013-10-11 11:57:00,84.2,68.8,29.65,North,0,0.0,0.0,60,0.00,,SCT070,0.00,VWS V14.01,2013-10-11 15:57:00,
2013-10-11 12:02:00,84.6,68.7,29.65,North,0,0.0,0.0,59,0.00,,SCT070,0.00,VWS V14.01,2013-10-11 16:02:00,
2013-10-11 12:07:00,85.3,66.8,29.65,North,0,0.0,0.0,54,0.00,,SCT070,0.00,VWS V14.01,2013-10-11 16:07:00,
2013-10-11 12:12:00,86.2,66.5,29.62,North,0,0.0,0.0,52,0.00,,SCT070,0.00,VWS V14.01,2013-10-11 16:12:00,
2013-10-11 12:17:00,86.5,64.5,29.62,North,0,0.0,0.0,48,0.00,,SCT070,0.00,VWS V14.01,2013-10-11 16:17:00,
2013-10-11 12:22:00,86.9,65.5,29.62,North,0,0.0,0.0,49,0.00,,SCT070,0.00,VWS V14.01,2013-10-11 16:22:00,
2013-10-11 12:27:00,87.4,64.1,29.62,North,0,0.0,0.0,46,0.00,,SCT070,0.00,VWS V14.01,2013-10-11 16:27:00,
2013-10-11 12:32:00,88.0,62.7,29.62,North,0,0.0,0.0,43,0.00,,SCT070,0.00,VWS V14.01,2013-10-11 16:32:00,
2013-10-11 12:37:00,88.2,61.5,29.62,North,0,0.0,0.0,41,0.00,,SCT070,0.00,VWS V14.01,2013-10-11 16:37:00,
2013-10-11 12:42:00,88.2,61.5,29.62,North,0,0.0,0.0,41,0.00,,SCT070,0.00,VWS V14.01,2013-10-11 16:42:00,
2013-10-11 12:47:00,88.2,61.5,29.62,North,0,0.0,0.0,41,0.00,,SCT070,0.00,VWS V14.01,2013-10-11 16:47:00,
2013-10-11 12:52:00,88.0,60.0,29.62,North,0,0.0,0.0,39,0.00,,SCT070,0.00,VWS V14.01,2013-10-11 16:52:00,
2013-10-11 12:57:00,88.0,59.2,29.59,North,0,0.0,0.0,38,0.00,,SCT070,0.00,VWS V14.01,2013-10-11 16:57:00,
2013-10-11 13:02:00,88.2,57.9,29.59,North,0,0.0,0.0,36,0.00,,SCT070,0.00,VWS V14.01,2013-10-11 17:02:00,
2013-10-11 13:07:00,88.7,59.1,29.59,North,0,0.0,0.0,37,0.00,,SCT070,0.00,VWS V14.01,2013-10-11 17:07:00,
2013-10-11 13:12:00,89.2,56.4,29.59,North,0,0.0,0.0,33,0.00,,SCT070,0.00,VWS V14.01,2013-10-11 17:12:00,
2013-10-11 13:17:00,89.6,55.0,29.59,North,0,0.0,0.0,31,0.00,,SCT070,0.00,VWS V14.01,2013-10-11 17:17:00,
2013-10-11 13:22:00,89.6,53.2,29.59,North,0,0.0,0.0,29,0.00,,SCT070,0.00,VWS V14.01,2013-10-11 17:22:00,
2013-10-11 13:27:00,89.4,52.1,29.59,North,0,0.0,0.0,28,0.00,,SCT070,0.00,VWS V14.01,2013-10-11 17:27:00,
2013-10-11 13:32:00,89.8,53.3,29.59,North,0,0.0,0.0,29,0.00,,SCT070,0.00,VWS V14.01,2013-10-11 17:32:00,
2013-10-11 13:37:00,90.1,52.7,29.59,North,0,0.0,0.0,28,0.00,,SCT070,0.00,VWS V14.01,2013-10-11 17:37:00,
2013-10-11 13:42:00,90.9,53.3,29.59,North,0,0.0,0.0,28,0.00,,SCT070,0.00,VWS V14.01,2013-10-11 17:42:00,
2013-10-11 13:47:00,91.2,53.6,29.59,North,0,0.0,0.0,28,0.00,,SCT070,0.00,VWS V14.01,2013-10-11 17:47:00,
2013-10-11 13:52:00,91.2,50.5,29.59,North,0,0.0,0.0,25,0.00,,SCT070,0.00,VWS V14.01,2013-10-11 17:52:00,
2013-10-11 13:57:00,90.7,52.1,29.59,North,0,0.0,0.0,27,0.00,,SCT070,0.00,VWS V14.01,2013-10-11 17:57:00,
2013-10-11 14:02:00,90.7,53.1,29.59,North,0,0.0,0.0,28,0.00,,SCT070,0.00,VWS V14.01,2013-10-11 18:02:00,
2013-10-11 14:07:00,90.5,52.0,29.59,North,0,0.0,0.0,27,0.00,,SCT070,0.00,VWS V14.01,2013-10-11 18:07:00,
2013-10-11 14:12:00,90.7,52.1,29.59,North,0,0.0,0.0,27,0.00,,SCT070,0.00,VWS V14.01,2013-10-11 18:12:00,
2013-10-11 14:17:00,90.9,52.3,29.59,North,0,0.0,0.0,27,0.00,,SCT070,0.00,VWS V14.01,2013-10-11 18:17:00,
2013-10-11 14:22:00,91.2,50.5,29.59,North,0,0.0,0.0,25,0.00,,SCT070,0.00,VWS V14.01,2013-10-11 18:22:00,
2013-10-11 14:27:00,90.9,50.2,29.59,North,0,0.0,0.0,25,0.00,,SCT070,0.00,VWS V14.01,2013-10-11 18:27:00,
2013-10-11 14:32:00,90.0,51.5,29.59,North,0,0.0,0.0,27,0.00,,SCT070,0.00,VWS V14.01,2013-10-11 18:32:00,
2013-10-11 14:37:00,89.2,51.9,29.59,North,0,0.0,0.0,28,0.00,,SCT070,0.00,VWS V14.01,2013-10-11 18:37:00,
2013-10-11 14:42:00,88.9,51.6,29.56,North,0,0.0,0.0,28,0.00,,SCT070,0.00,VWS V14.01,2013-10-11 18:42:00,
2013-10-11 14:47:00,88.9,51.6,29.56,North,0,0.0,0.0,28,0.00,,SCT070,0.00,VWS V14.01,2013-10-11 18:47:00,
2013-10-11 14:52:00,88.9,51.6,29.56,North,0,0.0,0.0,28,0.00,,SCT070,0.00,VWS V14.01,2013-10-11 18:52:00,
2013-10-11 14:57:00,87.3,51.2,29.56,North,0,0.0,0.0,29,0.00,,SCT070,0.00,VWS V14.01,2013-10-11 18:57:00,
2013-10-11 15:02:00,85.6,54.1,29.56,North,0,0.0,0.0,34,0.00,,SCT070,0.00,VWS V14.01,2013-10-11 19:02:00,
2013-10-11 15:07:00,86.4,54.7,29.56,North,0,0.0,0.0,34,0.00,,SCT070,0.00,VWS V14.01,2013-10-11 19:07:00,
2013-10-11 15:12:00,86.9,51.8,29.59,North,0,0.0,0.0,30,0.00,,SCT070,0.00,VWS V14.01,2013-10-11 19:12:00,
2013-10-11 15:17:00,87.8,51.6,29.59,North,0,0.0,0.0,29,0.00,,SCT070,0.00,VWS V14.01,2013-10-11 19:17:00,
2013-10-11 15:22:00,88.9,51.6,29.59,North,0,0.0,0.0,28,0.00,,SCT070,0.00,VWS V14.01,2013-10-11 19:22:00,
2013-10-11 15:27:00,89.6,51.2,29.56,North,0,0.0,0.0,27,0.00,,SCT070,0.00,VWS V14.01,2013-10-11 19:27:00,
2013-10-11 15:32:00,90.1,51.7,29.56,North,0,0.0,0.0,27,0.00,,SCT070,0.00,VWS V14.01,2013-10-11 19:32:00,
2013-10-11 15:37:00,90.7,49.0,29.56,North,0,0.0,0.0,24,0.00,,SCT070,0.00,VWS V14.01,2013-10-11 19:37:00,
2013-10-11 15:42:00,90.7,50.1,29.56,North,0,0.0,0.0,25,0.00,,SCT070,0.00,VWS V14.01,2013-10-11 19:42:00,
2013-10-11 15:47:00,90.3,52.8,29.56,North,0,0.0,0.0,28,0.00,,SCT070,0.00,VWS V14.01,2013-10-11 19:47:00,
2013-10-11 15:52:00,89.2,51.9,29.56,North,0,0.0,0.0,28,0.00,,SCT070,0.00,VWS V14.01,2013-10-11 19:52:00,
2013-10-11 15:57:00,88.7,51.4,29.56,North,0,0.0,0.0,28,0.00,,SCT070,0.00,VWS V14.01,2013-10-11 19:57:00,
2013-10-11 16:02:00,88.2,52.8,29.56,North,0,0.0,0.0,30,0.00,,SCT070,0.00,VWS V14.01,2013-10-11 20:02:00,
2013-10-11 16:07:00,87.6,55.0,29.56,North,0,0.0,0.0,33,0.00,,SCT070,0.00,VWS V14.01,2013-10-11 20:07:00,
2013-10-11 16:12:00,87.1,55.3,29.56,North,0,0.0,0.0,34,0.00,,SCT070,0.00,VWS V14.01,2013-10-11 20:12:00,
2013-10-11 16:17:00,87.1,56.1,29.56,North,0,0.0,0.0,35,0.00,,SCT070,0.00,VWS V14.01,2013-10-11 20:17:00,
2013-10-11 16:22:00,87.1,56.9,29.56,North,0,0.0,0.0,36,0.00,,SCT070,0.00,VWS V14.01,2013-10-11 20:22:00,
2013-10-11 16:27:00,87.1,59.2,29.56,North,0,0.0,0.0,39,0.04,,SCT070,0.04,VWS V14.01,2013-10-11 20:27:00,
2013-10-11 16:32:00,86.5,66.8,29.56,North,0,0.0,0.0,52,0.04,,SCT070,0.04,VWS V14.01,2013-10-11 20:32:00,
2013-10-11 16:37:00,86.0,66.3,29.56,North,0,0.0,0.0,52,0.04,,SCT070,0.04,VWS V14.01,2013-10-11 20:37:00,
2013-10-11 16:42:00,85.6,66.6,29.56,North,0,0.0,0.0,53,0.04,,SCT070,0.04,VWS V14.01,2013-10-11 20:42:00,
2013-10-11 16:47:00,85.6,67.1,29.56,North,0,0.0,0.0,54,0.04,,SCT070,0.04,VWS V14.01,2013-10-11 20:47:00,
2013-10-11 16:52:00,85.6,67.6,29.56,North,0,0.0,0.0,55,0.04,,SCT070,0.04,VWS V14.01,2013-10-11 20:52:00,
2013-10-11 16:57:00,85.3,66.8,29.56,North,0,0.0,0.0,54,0.04,,SCT070,0.04,VWS V14.01,2013-10-11 20:57:00,
2013-10-11 17:02:00,85.1,66.1,29.56,North,0,0.0,0.0,53,0.04,,SCT070,0.04,VWS V14.01,2013-10-11 21:02:00,
2013-10-11 17:07:00,85.1,67.1,29.56,North,0,0.0,0.0,55,0.04,,SCT070,0.04,VWS V14.01,2013-10-11 21:07:00,
2013-10-11 17:12:00,85.1,68.2,29.56,North,0,0.0,0.0,57,0.04,,SCT070,0.04,VWS V14.01,2013-10-11 21:12:00,
2013-10-11 17:17:00,84.9,68.0,29.56,North,0,0.0,0.0,57,0.04,,SCT070,0.04,VWS V14.01,2013-10-11 21:17:00,
2013-10-11 17:22:00,84.9,68.5,29.56,North,0,0.0,0.0,58,0.04,,SCT070,0.04,VWS V14.01,2013-10-11 21:22:00,
2013-10-11 17:27:00,84.7,68.3,29.59,North,0,0.0,0.0,58,0.04,,SCT070,0.04,VWS V14.01,2013-10-11 21:27:00,
2013-10-11 17:32:00,84.6,68.2,29.59,North,0,0.0,0.0,58,0.04,,SCT070,0.04,VWS V14.01,2013-10-11 21:32:00,
2013-10-11 17:37:00,84.4,67.5,29.59,North,0,0.0,0.0,57,0.04,,SCT070,0.04,VWS V14.01,2013-10-11 21:37:00,
2013-10-11 17:42:00,84.4,68.0,29.59,North,0,0.0,0.0,58,0.00,,SCT070,0.04,VWS V14.01,2013-10-11 21:42:00,
2013-10-11 17:47:00,84.4,68.0,29.59,North,0,0.0,0.0,58,0.00,,SCT070,0.04,VWS V14.01,2013-10-11 21:47:00,
2013-10-11 17:52:00,84.2,67.8,29.59,North,0,0.0,0.0,58,0.00,,SCT070,0.04,VWS V14.01,2013-10-11 21:52:00,
2013-10-11 17:57:00,83.8,67.5,29.56,North,0,0.0,0.0,58,0.00,,SCT070,0.04,VWS V14.01,2013-10-11 21:57:00,
2013-10-11 18:02:00,83.7,67.3,29.56,North,0,0.0,0.0,58,0.00,,SCT070,0.04,VWS V14.01,2013-10-11 22:02:00,
2013-10-11 18:07:00,83.5,67.2,29.56,North,0,0.0,0.0,58,0.00,,SCT070,0.04,VWS V14.01,2013-10-11 22:07:00,
2013-10-11 18:12:00,83.3,67.5,29.59,North,0,0.0,0.0,59,0.00,,SCT070,0.04,VWS V14.01,2013-10-11 22:12:00,
2013-10-11 18:17:00,83.3,67.5,29.59,North,0,0.0,0.0,59,0.00,,SCT070,0.04,VWS V14.01,2013-10-11 22:17:00,
2013-10-11 18:22:00,83.3,68.0,29.59,North,0,0.0,0.0,60,0.00,,SCT070,0.04,VWS V14.01,2013-10-11 22:22:00,
2013-10-11 18:27:00,83.1,67.8,29.59,North,0,0.0,0.0,60,0.00,,SCT070,0.04,VWS V14.01,2013-10-11 22:27:00,
2013-10-11 18:32:00,83.1,68.3,29.59,North,0,0.0,0.0,61,0.00,,SCT070,0.04,VWS V14.01,2013-10-11 22:32:00,
2013-10-11 18:37:00,82.9,68.6,29.59,North,0,0.0,0.0,62,0.00,,SCT070,0.04,VWS V14.01,2013-10-11 22:37:00,
2013-10-11 18:42:00,82.9,68.6,29.59,North,0,0.0,0.0,62,0.00,,SCT070,0.04,VWS V14.01,2013-10-11 22:42:00,
2013-10-11 18:47:00,82.9,69.1,29.59,North,0,0.0,0.0,63,0.00,,SCT070,0.04,VWS V14.01,2013-10-11 22:47:00,
2013-10-11 18:52:00,82.9,69.1,29.59,North,0,0.0,0.0,63,0.00,,SCT070,0.04,VWS V14.01,2013-10-11 22:52:00,
2013-10-11 18:57:00,82.8,69.3,29.56,North,0,0.0,0.0,64,0.00,,SCT070,0.04,VWS V14.01,2013-10-11 22:57:00,
2013-10-11 19:02:00,82.8,69.3,29.56,North,0,0.0,0.0,64,0.00,,SCT070,0.04,VWS V14.01,2013-10-11 23:02:00,
2013-10-11 19:07:00,82.6,69.2,29.56,North,0,0.0,0.0,64,0.00,,SCT070,0.04,VWS V14.01,2013-10-11 23:07:00,
2013-10-11 19:12:00,82.2,69.3,29.56,North,0,0.0,0.0,65,0.00,,SCT070,0.04,VWS V14.01,2013-10-11 23:12:00,
2013-10-11 19:17:00,82.0,69.1,29.56,North,0,0.0,0.0,65,0.00,,SCT070,0.04,VWS V14.01,2013-10-11 23:17:00,
2013-10-11 19:22:00,81.9,69.4,29.56,North,0,0.0,0.0,66,0.00,,SCT070,0.04,VWS V14.01,2013-10-11 23:22:00,
2013-10-11 19:27:00,82.0,69.6,29.59,North,0,0.0,0.0,66,0.00,,SCT070,0.04,VWS V14.01,2013-10-11 23:27:00,
2013-10-11 19:32:00,81.9,69.4,29.59,North,0,0.0,0.0,66,0.00,,SCT070,0.04,VWS V14.01,2013-10-11 23:32:00,
2013-10-11 19:37:00,81.7,69.2,29.59,North,0,0.0,0.0,66,0.00,,SCT070,0.04,VWS V14.01,2013-10-11 23:37:00,
2013-10-11 19:42:00,81.7,69.7,29.59,North,0,0.0,0.0,67,0.00,,SCT070,0.04,VWS V14.01,2013-10-11 23:42:00,
2013-10-11 19:47:00,81.5,69.5,29.59,North,0,0.0,0.0,67,0.00,,SCT070,0.04,VWS V14.01,2013-10-11 23:47:00,
2013-10-11 19:52:00,81.5,69.5,29.59,North,0,0.0,0.0,67,0.00,,SCT070,0.04,VWS V14.01,2013-10-11 23:52:00,
2013-10-11 19:57:00,81.5,69.5,29.59,North,0,0.0,0.0,67,0.00,,SCT070,0.04,VWS V14.01,2013-10-11 23:57:00,
2013-10-11 20:02:00,81.3,69.3,29.59,North,0,0.0,0.0,67,0.00,,SCT070,0.04,VWS V14.01,2013-10-12 00:02:00,
2013-10-11 20:07:00,81.0,69.4,29.59,North,0,0.0,0.0,68,0.00,,SCT070,0.04,VWS V14.01,2013-10-12 00:07:00,
2013-10-11 20:12:00,80.8,69.2,29.56,North,0,0.0,0.0,68,0.00,,SCT070,0.04,VWS V14.01,2013-10-12 00:12:00,
2013-10-11 20:17:00,80.6,69.1,29.56,North,0,0.0,0.0,68,0.00,,SCT070,0.04,VWS V14.01,2013-10-12 00:17:00,
2013-10-11 20:22:00,80.8,69.7,29.56,North,0,0.0,0.0,69,0.00,,SCT070,0.04,VWS V14.01,2013-10-12 00:22:00,
2013-10-11 20:27:00,80.8,69.7,29.53,North,0,0.0,0.0,69,0.00,,SCT070,0.04,VWS V14.01,2013-10-12 00:27:00,
2013-10-11 20:32:00,80.8,69.7,29.53,North,0,0.0,0.0,69,0.00,,SCT070,0.04,VWS V14.01,2013-10-12 00:32:00,
2013-10-11 20:37:00,80.8,69.7,29.53,North,0,0.0,0.0,69,0.00,,SCT070,0.04,VWS V14.01,2013-10-12 00:37:00,
2013-10-11 20:42:00,80.8,69.7,29.47,North,0,0.0,0.0,69,0.00,,SCT070,0.04,VWS V14.01,2013-10-12 00:42:00,
2013-10-11 20:47:00,80.6,69.5,29.47,North,0,0.0,0.0,69,0.00,,SCT070,0.04,VWS V14.01,2013-10-12 00:47:00,
2013-10-11 20:52:00,80.6,69.9,29.47,North,0,0.0,0.0,70,0.00,,SCT070,0.04,VWS V14.01,2013-10-12 00:52:00,
2013-10-11 20:57:00,80.4,69.8,29.47,North,0,0.0,0.0,70,0.00,,SCT070,0.04,VWS V14.01,2013-10-12 00:57:00,
2013-10-11 21:02:00,80.2,69.6,29.47,North,0,0.0,0.0,70,0.00,,SCT070,0.04,VWS V14.01,2013-10-12 01:02:00,
2013-10-11 21:07:00,80.1,69.4,29.47,North,0,0.0,0.0,70,0.00,,SCT070,0.04,VWS V14.01,2013-10-12 01:07:00,
2013-10-11 21:12:00,79.9,69.2,29.47,North,0,0.0,0.0,70,0.00,,SCT070,0.04,VWS V14.01,2013-10-12 01:12:00,
2013-10-11 21:17:00,79.7,69.1,29.47,North,0,0.0,0.0,70,0.00,,SCT070,0.04,VWS V14.01,2013-10-12 01:17:00,
2013-10-11 21:22:00,79.7,69.1,29.47,North,0,0.0,0.0,70,0.00,,SCT070,0.04,VWS V14.01,2013-10-12 01:22:00,
2013-10-11 21:27:00,79.7,69.1,29.47,North,0,0.0,0.0,70,0.00,,SCT070,0.04,VWS V14.01,2013-10-12 01:27:00,
2013-10-11 21:32:00,79.7,69.1,29.47,North,0,0.0,0.0,70,0.00,,SCT070,0.04,VWS V14.01,2013-10-12 01:32:00,
2013-10-11 21:37:00,79.7,69.5,29.47,North,0,0.0,0.0,71,0.00,,SCT070,0.04,VWS V14.01,2013-10-12 01:37:00,
2013-10-11 21:42:00,79.5,69.3,29.47,North,0,0.0,0.0,71,0.00,,SCT070,0.04,VWS V14.01,2013-10-12 01:42:00,
2013-10-11 21:47:00,79.3,69.1,29.47,North,0,0.0,0.0,71,0.00,,SCT070,0.04,VWS V14.01,2013-10-12 01:47:00,
2013-10-11 21:52:00,79.3,69.1,29.47,North,0,0.0,0.0,71,0.00,,SCT070,0.04,VWS V14.01,2013-10-12 01:52:00,
2013-10-11 21:57:00,79.3,69.1,29.47,North,0,0.0,0.0,71,0.00,,SCT070,0.04,VWS V14.01,2013-10-12 01:57:00,
2013-10-11 22:02:00,79.2,68.9,29.47,North,0,0.0,0.0,71,0.00,,SCT070,0.04,VWS V14.01,2013-10-12 02:02:00,
2013-10-11 22:07:00,79.0,68.8,29.47,North,0,0.0,0.0,71,0.00,,SCT070,0.04,VWS V14.01,2013-10-12 02:07:00,
2013-10-11 22:12:00,78.8,68.6,29.44,North,0,0.0,0.0,71,0.00,,SCT070,0.04,VWS V14.01,2013-10-12 02:12:00,
2013-10-11 22:17:00,78.6,68.8,29.44,North,0,0.0,0.0,72,0.00,,SCT070,0.04,VWS V14.01,2013-10-12 02:17:00,
2013-10-11 22:22:00,78.4,68.7,29.44,North,0,0.0,0.0,72,0.00,,SCT070,0.04,VWS V14.01,2013-10-12 02:22:00,
2013-10-11 22:27:00,78.4,69.1,29.44,North,0,0.0,0.0,73,0.00,,SCT070,0.04,VWS V14.01,2013-10-12 02:27:00,
2013-10-11 22:32:00,78.4,69.1,29.44,North,0,0.0,0.0,73,0.00,,SCT070,0.04,VWS V14.01,2013-10-12 02:32:00,
2013-10-11 22:37:00,78.3,68.9,29.44,North,0,0.0,0.0,73,0.00,,SCT070,0.04,VWS V14.01,2013-10-12 02:37:00,
2013-10-11 22:42:00,78.1,68.7,29.41,North,0,0.0,0.0,73,0.00,,SCT070,0.04,VWS V14.01,2013-10-12 02:42:00,
2013-10-11 22:47:00,77.9,68.6,29.41,North,0,0.0,0.0,73,0.00,,SCT070,0.04,VWS V14.01,2013-10-12 02:47:00,
2013-10-11 22:52:00,77.7,68.4,29.41,North,0,0.0,0.0,73,0.00,,SCT070,0.04,VWS V14.01,2013-10-12 02:52:00,
2013-10-11 22:57:00,77.7,68.4,29.41,North,0,0.0,0.0,73,0.00,,SCT070,0.04,VWS V14.01,2013-10-12 02:57:00,
2013-10-11 23:02:00,77.7,68.8,29.41,North,0,0.0,0.0,74,0.00,,SCT070,0.04,VWS V14.01,2013-10-12 03:02:00,
2013-10-11 23:07:00,77.5,68.6,29.41,North,0,0.0,0.0,74,0.00,,SCT070,0.04,VWS V14.01,2013-10-12 03:07:00,
2013-10-11 23:12:00,77.4,68.4,29.35,North,0,0.0,0.0,74,0.00,,SCT070,0.04,VWS V14.01,2013-10-12 03:12:00,
2013-10-11 23:17:00,77.4,68.4,29.35,North,0,0.0,0.0,74,0.00,,SCT070,0.04,VWS V14.01,2013-10-12 03:17:00,
2013-10-11 23:22:00,77.4,68.4,29.35,North,0,0.0,0.0,74,0.00,,SCT070,0.04,VWS V14.01,2013-10-12 03:22:00,
2013-10-11 23:27:00,77.4,68.4,29.35,North,0,0.0,0.0,74,0.00,,SCT070,0.04,VWS V14.01,2013-10-12 03:27:00,
2013-10-11 23:32:00,77.4,68.8,29.35,North,0,0.0,0.0,75,0.00,,SCT070,0.04,VWS V14.01,2013-10-12 03:32:00,
2013-10-11 23:37:00,77.2,68.7,29.35,North,0,0.0,0.0,75,0.00,,SCT070,0.04,VWS V14.01,2013-10-12 03:37:00,
2013-10-11 23:42:00,77.0,68.5,29.35,North,0,0.0,0.0,75,0.00,,SCT070,0.04,VWS V14.01,2013-10-12 03:42:00,
2013-10-11 23:47:00,77.0,68.5,29.35,North,0,0.0,0.0,75,0.00,,SCT070,0.04,VWS V14.01,2013-10-12 03:47:00,
2013-10-11 23:52:00,77.0,68.5,29.35,North,0,0.0,0.0,75,0.00,,SCT070,0.04,VWS V14.01,2013-10-12 03:52:00,
2013-10-11 23:57:00,77.0,68.9,29.35,North,0,0.0,0.0,76,0.00,,SCT070,0.04,VWS V14.01,2013-10-12 03:57:00,